HO-113
1 50466U 21131B   25353.87091624  .00000446  00000-0  15230-3 0  9992
2 50466  98.5055  82.2570 0003066 278.6671  81.4170 14.41121050209282
SNUGLITE 2
1 52899U 22065F   25353.84265959  .00000897  00000-0  18084-3 0  9992
2 52899  98.1931 134.3355 0006779 220.1603 139.9099 14.63854355184752
UmKA 1 (RS40S)
1 57172U 23091G   25353.79442297  .00004528  00000-0  22392-3 0  9999
2 57172  97.5334  48.2288 0014195  30.5500 329.6557 15.18257482136763
CubeBel-2 (EU11S)
1 57175U 23091K   25353.81167042  .00008618  00000-0  35592-3 0  9997
2 57175  97.5333  50.7970 0011586  33.6241 326.5729 15.24202451136937
RS-38S
1 57189U 23091Z   25353.83722977  .00010613  00000-0  37261-3 0  9991
2 57189  97.5360  55.3343 0008119 358.7358   1.3860 15.29564847137216
SONATE-2
1 59112U 24043Q   25353.38765801  .00021337  00000-0  44678-3 0  9995
2 59112  97.5333 129.8886 0009209 138.6515 221.5432 15.45419874100009
MO-122
1 60209U 24125G   25353.38851846  .00024860  00000-0  49732-3 0  9990
2 60209  97.2515 203.7669 0014663 153.5645 206.6356 15.46648126 81639
GRBBeta
1 60237U 24128C   25353.72861954  .00003635  00000-0  26244-3 0  9993
2 60237  61.9900 125.1047 0056027  97.9490 262.7965 15.04822732 79246
Curium One
1 60242U 24128H   25353.62112780  .00007287  00000-0  45560-3 0  9993
2 60242  61.9796 120.1942 0055619  94.4909 266.2542 15.09014436 79325
ROBUSTA-3A
1 60243U 24128J   25353.36242161  .00006205  00000-0  39758-3 0  9993
2 60243  61.9864 122.6681 0055828  92.1691 268.5797 15.08315265 79267
CatSat
1 60246U 24125J   25353.55892015  .00026538  00000-0  63078-3 0  9996
2 60246  97.2302 200.8719 0034352 120.0734 240.3927 15.41006410 79571
HYPERVIEW-1G (RS66S)
1 61772U 24199AP  25353.85277307  .00031221  00000-0  58892-3 0  9999
2 61772  97.3203 223.3794 0008296 204.9644 155.1206 15.48389230106711
AO-123
1 61781U 24199AY  25353.85732358  .00007957  00000-0  25862-3 0  9991
2 61781  97.3245 219.2297 0013060 226.9858 133.0290 15.32092966106432
ZIMSAT 2
1 61783U 24199BA  25353.53009689  .00207553  00000-0  12962-2 0  9992
2 61783  97.3076 226.8459 0004892 157.8032 202.3446 15.76266785110077
HADES-R (SO-124)
1 62690U 25009CK  25353.50180803  .00139512  00000-0  16338-2 0  9996
2 62690  97.3864  76.3943 0001150 263.7674  96.3452 15.61075237 51839
HYDRA-T
1 62692U 25009CM  25353.47142805  .00154374  00000-0  16565-2 0  9999
2 62692  97.3861  76.5858 0001604 276.0374  84.0702 15.63290951 51840
JINJUSat 1B
1 63210U 25052A   25353.14274451  .00012621  00000-0  48019-3 0  9999
2 63210  97.4208 245.2587 0004952  30.9085 329.2445 15.26887237 42567
NUSHSAT 1
1 63211U 25052B   25353.46103451  .00014371  00000-0  52846-3 0  9993
2 63211  97.4189 245.7058 0005015  33.7049 326.4508 15.27983213 42624
TEVEL2-4
1 63213U 25052D   25353.66143486  .00012588  00000-0  47301-3 0  9997
2 63213  97.4108 245.4430 0004702  48.0549 312.1091 15.27299696 42640
TEVEL2-5
1 63214U 25052E   25353.66723738  .00012195  00000-0  45943-3 0  9996
2 63214  97.4106 245.4353 0004690  48.6434 311.5207 15.27223416 42647
TEVEL2-6
1 63215U 25052F   25353.67475926  .00011743  00000-0  44316-3 0  9992
2 63215  97.4107 245.4309 0004776  47.9549 312.2096 15.27175954 42641
TEVEL2-1
1 63217U 25052H   25352.67033598  .00014195  00000-0  54071-3 0  9991
2 63217  97.4083 244.2394 0005167  58.6972 301.4772 15.26817329 42482
TEVEL2-3
1 63218U 25052J   25353.65249480  .00012128  00000-0  46185-3 0  9991
2 63218  97.4085 245.2198 0005203  56.5864 303.5872 15.26864723 42637
TEVEL2-2
1 63219U 25052K   25353.19539921  .00013194  00000-0  50263-3 0  9999
2 63219  97.4084 244.7608 0005156  58.0109 302.1631 15.26832185 42560
TEVEL2-9
1 63237U 25052AD  25353.16480731  .00012752  00000-0  50799-3 0  9993
2 63237  97.4146 244.4275 0009185  64.2665 295.9520 15.25322962 42526
TEVEL2-7
1 63238U 25052AE  25353.63862220  .00011104  00000-0  44475-3 0  9997
2 63238  97.4148 244.8700 0009277  63.0195 297.1989 15.25177809 42591
TEVEL2-8
1 63239U 25052AF  25353.44754769  .00011990  00000-0  48035-3 0  9994
2 63239  97.4150 244.6651 0009268  63.6438 296.5750 15.25147399 42561
HYDRA-W
1 63490U 25052BL  25352.21863947  .00068284  00000-0  15821-2 0  9990
2 63490  97.4067 246.0800 0011289  57.9505 302.2837 15.42123797 42562
HADES-ICM (SO-125)
1 63492U 25052BN  25351.96064983  .00050303  00000-0  12519-2 0  9990
2 63492  97.4082 245.5345 0011625  61.2981 298.9432 15.40039410 42501
Dragonfly
1 65729U 98067XH  25353.59934995  .00144123  00000-0  96899-3 0  9999
2 65729  51.6251 100.5779 0007280 320.5398  39.5070 15.74182800 14248
RSP-03
1 65732U 98067XL  25353.42469933  .00106087  00000-0  84699-3 0  9992
2 65732  51.6265 102.4221 0005658 294.5755  65.4652 15.70283101 14217
GHS-01
1 65733U 98067XM  25353.72697633  .00188446  00000-0  10728-2 0  9996
2 65733  51.6273  99.1864 0008343 325.0318  35.0134 15.77819432 14285
BOTAN
1 65942U 98067XP  25353.36522579  .00083736  00000-0  85845-3 0  9993
2 65942  51.6281 105.7870 0002893 295.6773  64.3923 15.64228558 10903
BEE-1000
1 66650U 25274A   25353.52753957  .00000973  00000-0  10224-3 0  9995
2 66650  97.7401 280.5907 0010694 226.1332 133.9004 14.91682536  3416
SPIRONE
1 66657U 25274H   25353.71688294  .00001468  00000-0  14841-3 0  9993
2 66657  97.7400 280.8026 0010762 249.6730 110.3333 14.92491265  3440
K-HERO
1 66660U 25274L   25353.37393786  .00001653  00000-0  16428-3 0  9997
2 66660  97.7404 280.4848 0012565 256.3531 103.6289 14.92997006  3396
SNUGLITE-III DURI
1 66661U 25274M   25353.17068803  .00001781  00000-0  17600-3 0  9990
2 66661  97.7404 280.2891 0013162 258.3586 101.6156 14.93131354  3364
SilverSat
1 66909U 98067XV  25353.55080352  .00049748  00000-0  79912-3 0  9999
2 66909  51.6306 108.5226 0003839 268.6960  91.3590 15.52516520  2671
CEVROSAT1
1 98526U 25248E   25313.13142326  .00000000  00000-0  19360-3 0    02
2 98526  45.4084 218.4764 0001315 254.8982 242.1062 15.17981583    02
